Weather History for KSBN - June, 2012

Change the Weather History Date:

Saturday, June 30, 2012

  Actual Average Record
Temperature  
Mean Temperature 79 °F 73 °F  
Max Temperature 89 °F 83 °F 97 °F (1913)
Min Temperature 68 °F 62 °F 40 °F (1943)
Degree Days  
Heating Degree Days 0 0  
Month to date heating degree days 29 43  
Since 1 June heating degree days 29 44  
Since 1 July heating degree days 5103 6298  
Cooling Degree Days 14 8  
Month to date cooling degree days 232 165  
Year to date cooling degree days 390 221  
Since 1 June cooling degree days 232 165  
Growing Degree Days 28 (Base 50)    
Moisture  
Dew Point 67 °F    
Average Humidity 72    
Maximum Humidity 93    
Minimum Humidity 50    
Precipitation  
Precipitation 0.23 in 0.11 in 2.54 in (1977)
Month to date precipitation 1.54 3.79  
Year to date precipitation 12.84 17.51  
Snow  
Snow 0.00 in 0.00 in 0.00 in (2002)
Month to date snowfall 0.0 0.0  
Since 1 June snowfall 0.0  
Since 1 July snowfall 51.2 66.6  
Snow Depth 0.00 in    
Sea Level Pressure  
Sea Level Pressure 29.85 in    
Wind  
Wind Speed 6 mph (WSW)    
Max Wind Speed 24 mph    
Max Gust Speed 31 mph    
Visibility 9 miles    
Events Rain , Thunderstorm    
T = Trace of Precipitation, MM = Missing Value Source: NWS Daily Summary

Daily Weather History Graph

Daily Weather History Graph

Search for Another Location

Airport or City:

Trip Planner

Search our weather history database for the weather conditions in past years. The results will help you decide how hot, cold, wet, or windy it might be!

Date:

Astronomy

Jun. 30, 2012 Rise Set
Actual Time 6:14 AM EDT 9:23 PM EDT
Civil Twilight 5:40 AM EDT 9:57 PM EDT
Nautical Twilight 4:56 AM EDT 10:41 PM EDT
Astronomical Twilight 4:04 AM EDT 11:33 PM EDT
Moon 6:18 PM EDT (6/30) 3:10 AM EDT (6/30)
Length of Visible Light 16h 17m
Length of Day
15h 09m
Waxing Gibbous, 87% of the Moon is Illuminated
Jun 30
Waxing Gibbous
Jul 3
Full
Jul 10
Last Quarter
Jul 19
New
Jul 26
First Quarter

Hourly Weather History & Observations

Time (EDT) Temp. Heat Index Dew Point Humidity Pressure Visibility Wind Dir Wind Speed Gust Speed Precip Events Conditions
12:54 AM 72.0 °F - 66.9 °F 84% 29.86 in 10.0 mi NNW 6.9 mph - 0.00 in Rain Light Rain
1:38 AM 73.4 °F - 66.2 °F 78% 29.86 in 10.0 mi SW 8.1 mph 18.4 mph 0.01 in Thunderstorm Scattered Clouds
1:54 AM 72.0 °F - 66.9 °F 84% 29.91 in 5.0 mi West 16.1 mph 19.6 mph 0.04 in Rain Light Rain
2:30 AM 71.6 °F - 66.2 °F 83% 29.92 in 6.0 mi WSW 11.5 mph - 0.04 in Rain , Thunderstorm Rain
2:54 AM 69.1 °F - 66.0 °F 90% 29.87 in 5.0 mi NNW 4.6 mph - 0.13 in Rain Rain
3:54 AM 69.1 °F - 66.9 °F 93% 29.82 in 10.0 mi South 4.6 mph - 0.07 in   Overcast
4:25 AM 69.8 °F - 66.2 °F 88% 29.85 in 7.0 mi SSW 10.4 mph 18.4 mph 0.00 in Rain Light Rain
4:54 AM 68.0 °F - 66.0 °F 93% 29.82 in 10.0 mi South 4.6 mph - 0.00 in   Partly Cloudy
5:54 AM 68.0 °F - 64.9 °F 90% 29.80 in 10.0 mi South 4.6 mph - N/A   Clear
7:54 AM 68.0 °F - 64.9 °F 90% 29.83 in 10.0 mi SW 5.8 mph - N/A   Clear
8:54 AM 71.1 °F - 66.0 °F 84% 29.85 in 10.0 mi WSW 4.6 mph - N/A   Clear
9:54 AM 75.0 °F - 66.9 °F 76% 29.85 in 10.0 mi SW 8.1 mph - N/A   Clear
10:54 AM 79.0 °F - 68.0 °F 69% 29.84 in 10.0 mi WSW 8.1 mph - N/A   Clear
11:54 AM 80.1 °F 82.1 °F 66.0 °F 62% 29.85 in 10.0 mi West 9.2 mph - N/A   Clear
12:54 PM 82.9 °F 85.4 °F 66.9 °F 58% 29.86 in 10.0 mi WSW 12.7 mph - N/A   Clear
1:54 PM 84.0 °F 87.0 °F 68.0 °F 58% 29.85 in 10.0 mi SSW 9.2 mph - N/A   Clear
2:54 PM 84.9 °F 88.2 °F 68.0 °F 57% 29.83 in 10.0 mi NW 4.6 mph - N/A   Clear
3:54 PM 87.1 °F 89.9 °F 66.9 °F 51% 29.83 in 10.0 mi NW 8.1 mph - N/A   Clear
4:54 PM 87.1 °F 90.6 °F 68.0 °F 53% 29.84 in 10.0 mi West 6.9 mph - N/A   Clear
5:54 PM 88.0 °F 90.7 °F 66.9 °F 49% 29.83 in 10.0 mi SW 5.8 mph - N/A   Clear
6:54 PM 86.0 °F 91.5 °F 71.1 °F 61% 29.84 in 10.0 mi SW 6.9 mph - N/A   Partly Cloudy
7:54 PM 86.0 °F 89.4 °F 68.0 °F 55% 29.85 in 10.0 mi NNW 8.1 mph - N/A   Partly Cloudy
8:54 PM 82.9 °F 86.5 °F 69.1 °F 63% 29.86 in 10.0 mi WNW 3.5 mph - N/A   Clear
9:54 PM 80.1 °F 83.8 °F 72.0 °F 76% 29.86 in 10.0 mi SW 5.8 mph - N/A   Clear
10:54 PM 78.1 °F - 71.1 °F 79% 29.87 in 10.0 mi SSW 4.6 mph - N/A   Clear
11:54 PM 75.9 °F - 70.0 °F 82% 29.86 in 10.0 mi Calm Calm - N/A   Clear